loading
DOY 175 | 2024-06-23T17:35:13Z
Showing default

ELEKTRON 3, 829

Orbit data source: Space-Track

ELEKTRON 3, 829 is a payload satellite owned by OKB-1 (CIS) in HEO that was launched on Fri, 10 Jul 1964 UTC via a Vostok 8K72 launch vehicle from the Tyuratam Missile And Space Complex (TTMTR). Payloads include a variety of satellites, spacecraft, and rockets equipped with specific instruments for various scientific and technological missions. These include communications satellites like Starlink; space stations such as the ISS; scientific satellites like the Hubble; Earth observation satellites from companies like Planet Labs, Umbra, and HawkEye 360; GPS; miniature CubeSats for education and research; and military/defense satellites.

Loading next visibility...
Loading greatness...
ELEKTRON 3 details
NORAD ID829
COSPAR ID
1964-038A
Orbit
HEO
Last TLE update21 hours ago
Origin
Flag of CISOKB-1 (CIS)
ManufacturerOKB-1
BusObject D
MotorUnknown
Mass350 kg wet, 350 kg dry
Launch date (UTC)
1964-07-10 (60 years ago)
Launch vehicle
Vostok 8K72
Launch site
Tyuratam Missile And Space Complex (TTMTR)
Object type
Payload
Rocket body
Debris
Radar Cross Section2.8 m², Large (>1 m²)
Predictive object data (real-time)
Latitude24.7728°
Longitude-81.39305°
Altitude4,307.677 km
Speed5.768 km/s
Apparent Right ascension11h 03m 34s
Apparent Declination2° 32' 23"
Sunlit
Object is in daylight
Predictive observer data (real-time)
Local Sidereal Time04:44:15
Azimuth84.951° E
Elevation-2.067°
Doppler factor1
Orbital elements
Apogee6,103.562 km
Perigee406.871 km
Semi-major axis9,633.354 km
Eccentricity0.2956754
Inclination60.8012°
RAAN122.0267°
Arg. of periapsis155.2174°
True anomaly204.86008°
Mean anomaly222.5863°
Mean motion2.2955 °/min
BSTAR0.00030367
Period156.83 mins
Definitive object data (Epoch: 2024-06-22T20:22:20.862Z)
Latitude0.00002°
Longitude-95.06651°
Altitude5,638.885 km
Speed4.998 km/s
True Right ascension08h 08m 06s
True Declination0° 00' 00"
Sunlit
Object was in daylight at TLE epoch
TLE from 21 hours ago
0 ELEKTRON 3
1 00829U 64038A   24174.84885257  .00001082  00000-0  30367-3 0  9998
2 00829  60.8012 122.0267 2956754 155.2174 222.5863  9.18091983948794
Epoch: 2024-06-22T20:22Z
No data available

ELEKTRON 3 Visibility forecast

Observer location: 39.9160978°, -105.1181434, 0m alt.

ELEKTRON 3 is not visible in the next 10 days
Span
Click to sort rows by Start time (UTC) header in descending order
Start Az.
Max El. time (UTC)
Max El. Az.
Max El.
End time (UTC)
End Az.